Tracking 22882 objects as of 18-Apr-2021
HD Live streaming from Space Station
objects crossing your sky now

COSMOS 977

Track COSMOS 977 now!
10-day predictions
COSMOS 977 is classified as:


NORAD ID: 10584
Int'l Code: 1978-005B
Perigee: 1,407.0 km
Apogee: 1,470.1 km
Inclination: 74.0 °
Period: 114.5 minutes
Semi major axis: 7809 km
RCS: 0.6664 m2 (medium)
Launch date: January 10, 1978
Source: Commonwealth of Independent States (former USSR) (CIS)
Launch site: PLESETSK MISSILE AND SPACE COMPLEX (PKMTR)
aabbcc
Your satellite tracking list
Your tracking list is empty




NASA's NSSDC Master Catalog

Two Line Element Set (TLE):
1 10584U 78005B   21108.44038531 -.00000010  00000-0  37812-4 0  9995
2 10584  74.0343   3.0421 0040414  99.9656  73.4553 12.57948094974318
Source of the keplerian elements: AFSPC